User: anonymous   Login
Location: Unspecified
(0.0000°N, 0.0000°E)
Time: 22:00:16
(UTC+00:00)
Language:

APRIZESAT 8 - Orbit

View from above orbital plane
View from above orbital plane
View from above satellite
View from above satellite

Ground track
Ground track

The orbit data is extracted from the following two-line orbital elements,

1 39425U 13066K   17082.94652192 +.00000101 +00000-0 +19298-4 0  9990
2 39425 097.6399 131.2320 0052054 183.5496 176.5356 14.80918160180013
Epoch (UTC): 23 March 2017 22:42:59
Eccentricity: 0.0052054
inclination: 97.6399°
perigee height: 590 km
apogee height: 663 km
right ascension of ascending node: 131.2320°
argument of perigee: 183.5496°
revolutions per day: 14.80918160
mean anomaly at epoch: 176.5356°
orbit number at epoch: 18001

The dashed part of the orbit path shows where the satellite is in the earth's shadow,  

DLR